Regional Weather Roundup
Issued by NWS

Home | Current Version | Previous Version | Text Only | Print | Product List | Glossary Off
Versions: 1 2 3 4 5 6 7 8 9 10 11 12 13 14 15 16 17 18 19 20 21 22 23 24 25 26 27 28 29 30 31 32 33 34 35 36 37 38 39 40 41 42 43 44 45 46 47 48 49 50

000
ASUS43 KLOT 261406
RWRIL

ILLINOIS REGIONAL WEATHER ROUNDUP
NATIONAL WEATHER SERVICE CHICAGO/ROMEOVILLE IL
800 AM CST MON JAN 26 2015

NOTE: "FAIR" INDICATES FEW OR NO CLOUDS BELOW 12,000 FEET WITH NO
SIGNIFICANT WEATHER AND/OR OBSTRUCTIONS TO VISIBILITY.

* THESE STATIONS ARE NOT UNDER NWS QUALITY CONTROL. THEY ALSO MAY NOT
  REPORT WEATHER SUCH AS PRECIPITATION OR FOG.

ILZ001-002-007-009-015-016-024-261500-
NORTHWEST ILLINOIS

CITY           SKY/WX    TMP DP  RH WIND       PRES   REMARKS
MOLINE         CLOUDY    20  14  77 VRB5      29.96F WCI  13
STERLING*      CLOUDY    18  12  79 SE5       29.96F WCI  11
SAVANNA*       CLOUDY    20  15  80 S6        29.96S WCI  12
$$

ILZ003-004-008-010-011-017-018-261500-
NORTH CENTRAL ILLINOIS

CITY           SKY/WX    TMP DP  RH WIND       PRES   REMARKS
ROCKFORD       CLOUDY    15  11  83 SW5       29.97F WCI   8
FREEPORT*      MOCLDY    16  12  86 S3        29.96S
ROCHELLE*      MOCLDY    15  12  87 CALM      29.97F
DE KALB*       CLOUDY    14  10  85 CALM      29.95F
PERU*          PTCLDY    17  14  87 W5        30.01R WCI  10
$$

ILZ005-006-012>014-019>023-261500-
NORTHEAST ILLINOIS

CITY           SKY/WX    TMP DP  RH WIND       PRES   REMARKS
CHICAGO-OHARE  MOCLDY    17  14  88 W3        29.96R
CHICAGO-MIDWAY MOCLDY    21  16  81 SW7       29.97R WCI  12
AURORA         CLOUDY    16  11  80 NW3       29.98R
LANSING*       PTCLDY    15  11  84 CALM      29.97S
JOLIET*        MOCLDY    17  13  86 NW3       29.99R
WAUKEGAN       PTCLDY    15  11  83 W3        29.95R
DUPAGE AIRPORT CLOUDY    16  12  84 CALM      29.96R
KANKAKEE*      PTCLDY    21  18  87 CALM      29.99R
WHEELING       PTCLDY    16  12  84 NW5       29.98R WCI   9
MORRIS*        MOCLDY    16  14  90 NW6       29.98S WCI   8
ROMEOVILLE*    MOCLDY    17  14  88 NW5       29.98R WCI  10
NORTHERLY ISL    N/A     23  16  74 E2          N/A
$$

LMZ740>746-261500-
SOUTHERN LAKE MICHIGAN

STATION/POSITION SKY/WX   TEMP    WIND        PRES    VSBY  WAVE
                          AIR SEA DIR/SP/G                  HT/PER
                          (F)     (DEG/KT/KT) (MB)    (MI)  (FT/S)
WAUKEGAN HARBOR            17     290/  5/  8   N/A
HARRISON CRIB              23      80/  4/  5   N/A
BURNHAM HARBOR             24      CALM  /  6   N/A
CALUMET HARBOR             18     170/  5/  7   N/A
MICHIGAN CITY              15      80/  3/  4   N/A
$$

ILZ025>027-034>036-040-047-049-050-058-095>099-261500-
WEST-CENTRAL ILLINOIS

CITY           SKY/WX    TMP DP  RH WIND       PRES   REMARKS
QUINCY         CLOUDY    27  22  81 CALM      30.01R
GALESBURG*     CLOUDY    22  19  88 S7        29.98F WCI  13
MACOMB*        CLOUDY    24  21  89 S3        30.02F
JACKSONVILLE*  CLOUDY    26  21  80 W3        30.04R
PITTSFIELD*    CLOUDY    28  24  84 SW3       30.05R
$$

ILZ028>032-037-038-041>044-048-051>054-059>061-261500-
CENTRAL ILLINOIS

CITY           SKY/WX    TMP DP  RH WIND       PRES   REMARKS
PONTIAC        PTCLDY    21  18  87 W3        30.00R
BLOOMINGTON    MOCLDY    20  16  84 W3        29.98F
DECATUR        MOCLDY    22  21  96 NW9       30.00S WCI  12
PEORIA         CLOUDY    21  15  78 W3        30.01S
LACON*         MOCLDY    19  14  80 CALM      30.00S
LINCOLN*       CLOUDY    23  18  81 NW3       30.03S
SPRINGFIELD    CLOUDY    23  18  81 NW6       30.03R WCI  16
TAYLORVILLE    CLOUDY    23  19  86 NW10      30.03R WCI  12
$$

ILZ033-039-045-046-055>057-062-063-261500-
EAST-CENTRAL ILLINOIS

CITY           SKY/WX    TMP DP  RH WIND       PRES   REMARKS
CHAMPAIGN      CLOUDY    25  20  81 NW8       29.99R WCI  16
DANVILLE*      CLOUDY    23  18  81 N3        29.94F
RANTOUL*       CLOUDY    26  21  81 NW5       29.99R WCI  20
MATTOON        CLOUDY    25  21  85 NW10      29.98S WCI  15
PARIS*         CLOUDY    27  23  86 NE7       29.98S WCI  19
$$

ILZ079-100>102-261500-
SOUTHWEST ILLINOIS

CITY           SKY/WX    TMP DP  RH WIND       PRES   REMARKS
ALTON          CLOUDY    27  41 100 W8        30.06S WCI  18
BELLEVILLE     CLEAR     25  24  93 W6        30.03F WCI  18
CAHOKIA*       CLOUDY    29  23  78 W10       30.05F WCI  20
SPARTA*        CLEAR     26  23  87 W6        30.06S WCI  20
$$

ILZ064>066-069>071-074>076-080>082-084>086-088>090-092>094-261500-
SOUTH-CENTRAL ILLINOIS

CITY           SKY/WX    TMP DP  RH WIND       PRES   REMARKS
CARBONDALE     PTCLDY    27  20  75 NW6       30.07R WCI  20
CAIRO*         CLEAR     33  27  79 NW8       30.08R WCI  26
EFFINGHAM*     CLOUDY    27  21  79 W10       30.02S WCI  17
MARION         MOCLDY    28  21  74 NW9       30.07R WCI  20
MT. VERNON     CLOUDY    27  18  69 W6        30.04F WCI  20
CENTRALIA*     CLEAR     26  20  79 W6        30.03S WCI  19
SALEM*         MOCLDY    27  22  80 W8        30.03F WCI  19
METROPOLIS*    CLOUDY    30  27  86 NW6       30.06R WCI  24
$$

ILZ067-068-072-073-078-083-087-091-261500-
SOUTHEAST ILLINOIS

CITY           SKY/WX    TMP DP  RH WIND       PRES   REMARKS
LAWRENCEVILLE  CLOUDY    29  25  85 NW6       30.00R WCI  23
FLORA*         CLOUDY    27  24  87 NW12      30.02S WCI  17
FAIRFIELD*     CLOUDY    28  24  83 NW6       30.02S WCI  22
HARRISBURG*    CLOUDY    29  24  81 NW7       30.05R WCI  22
ROBINSON*      CLOUDY    29  25  84 NW6       30.01R WCI  23
CARMI*         CLOUDY    32  28  86 W12       30.02R WCI  23
$$

ABBREVIATIONS USED IN REMARKS
   TC - TEMPERATURE IN CELSIUS
  WCI - WIND CHILL INDEX
   HX - HEAT INDEX
  VSB - VISIBILITY
$$



USA.gov is the U.S. government's official web portal to all federal, state and local government web resources and services.